Location: Prague
(50.0830°N, 14.4670°E)
Time: 09:52:18
(UTC+02:00)

RS-15 - Pass Details

Date: 09 April 2023
Orbit: 1885 x 2159 km, 64.8° (Epoch: 29 May)

Event Time Altitude Azimuth Distance (km) Brightness Sun altitude
Rises 02:38:54 0° 316° (NW) 5,587 10.7 -28.9°
Reaches altitude 10° 02:45:09 10° 293° (WNW) 4,520 9.9 -28.4°
Maximum altitude 02:49:31 13° 270° (W) 4,231 9.5 -28.1°
Enters shadow 02:50:05 13° 267° (W) 4,229 9.5 -28.1°
